This is the latest recevied weather packets stored in our database for station/object KD8OZS. If no packets are shown the sender has not sent any weather packets the latest 10 day(s).
| Time | Temp. | Humidity | Pressure | Rain* | Wind** | Luminosity | Snow |
|---|---|---|---|---|---|---|---|
| 1777406907 | 22.78° C | 61% | 1005 hPa | 0 mm | - | 575 W/m² | - |
| 1777406601 | 22.78° C | 62% | 1005.1 hPa | 0 mm | - | 548 W/m² | - |
| 1777406298 | 21.67° C | 64% | 1005 hPa | 0 mm | - | 590 W/m² | - |
| 1777405997 | 21.67° C | 65% | 1005.1 hPa | 0 mm | - | 174 W/m² | - |
| 1777405693 | 22.22° C | 62% | 1005.1 hPa | 0 mm | - | 490 W/m² | - |
| 1777405390 | 21.67° C | 63% | 1005.3 hPa | 0 mm | - | 175 W/m² | - |
| 1777405086 | 22.22° C | 62% | 1005.1 hPa | 0 mm | - | 131 W/m² | - |
| 1777404780 | 22.22° C | 61% | 1005.2 hPa | 0 mm | - | 202 W/m² | - |
| 1777404477 | 22.22° C | 62% | 1005.3 hPa | 0 mm | - | 636 W/m² | - |
| 1777404173 | 21.67° C | 65% | 1005.3 hPa | 0 mm | - | 659 W/m² | - |
| 1777403869 | 22.22° C | 62% | 1005.2 hPa | 0 mm | - | 726 W/m² | - |
| 1777403564 | 22.22° C | 63% | 1005.2 hPa | 0 mm | - | 474 W/m² | - |
| 1777403258 | 22.22° C | 67% | 1005.1 hPa | 0 mm | - | 761 W/m² | - |
| 1777402958 | 22.22° C | 68% | 1005.2 hPa | 0 mm | - | 727 W/m² | - |
| 1777402654 | 21.67° C | 69% | 1005.3 hPa | 0 mm | - | 774 W/m² | - |
| 1777402353 | 21.67° C | 66% | 1005.4 hPa | 0 mm | - | 766 W/m² | - |
| 1777402052 | 22.78° C | 66% | 1005.4 hPa | 0 mm | - | 703 W/m² | - |
| 1777401746 | 21.67° C | 71% | 1005.3 hPa | 0 mm | - | 719 W/m² | - |
| 1777401442 | 21.67° C | 68% | 1005.4 hPa | 0 mm | - | 191 W/m² | - |
| 1777401137 | 21.67° C | 68% | 1005 hPa | 0 mm | - | 185 W/m² | - |
| 1777400833 | 21.67° C | 68% | 1005.3 hPa | 0 mm | - | 200 W/m² | - |
| 1777400530 | 21.67° C | 68% | 1005.3 hPa | 0 mm | - | 848 W/m² | - |
| 1777400227 | 22.22° C | 67% | 1005.4 hPa | 0 mm | - | 199 W/m² | - |
| 1777399923 | 22.22° C | 68% | 1005.2 hPa | 0 mm | - | 856 W/m² | - |
| 1777399620 | 22.22° C | 67% | 1005.1 hPa | 0 mm | - | 841 W/m² | - |
* Rain latest hour (hover to see other rain measurements)
** Current wind speed in m/s (hover to see current wind gust speed)